Время (UTC), дата Ветер
(°,м/с) 
Видим.   Явления Облачность Т
(°С)
Тd
(°С)
f(%) Тe
(°С)
Pmin
(гПа)
dP
(гПа)
Po
(мм)
O2
(г/м3)
Тmin Tmax R s Состояние
почвы
00 01.10.11 270 (З) >10 км  {ливн. осадки}  ясно 
+4.6 +3.4 92 +3  1019.1  -0.3  723  286           
03 01.10.11 280 (З) >10 км    3/0 средняя 
[Ac trans]
+5.8 +3.8 87 +5  1018.7  -0.2  723  285           
06 01.10.11 270 (З) >10 км    3/3 300 м 
[Sc]
+9.9 +5.6 75 +9  1017.3  -0.6  723  280  +3.4    0.3     
09 01.10.11 270 (З) >10 км    8/8 800 м кучево-дожд. 
[Cb cap]
+11.8 +4.1 59 +11  1015.8  -1.1  722  278           
12 01.10.11 270 (З) >10 км    3/3 1000 м 
[Sc diur, vesp]
+13.1 +2.2 47 +12  1013.4  -2  720  277           
15 01.10.11 270 (З) >10 км    8/0 верхняя 
[Ci]
+9.9 +3.8 66 +8  1013.2  -0.8  720  279    +13.7       
18 01.10.11 250 (З) 10  >10 км    8/0 средняя, верхняя 
[Ac trans|Ci fib]
+10.3 +4.9 69 +8  1011.7  -1.3  719  278    +13.7       
21 01.10.11 250 (З) 11{22}  >10 км  {ливн. осадки}  10/4 600 м кучево-дожд., средняя 
[Cb cap|Ac und]
+11.2 +7.7 79 +9  1009.9  -1.5  718  276           
00 02.10.11 240 (ЮЗ) 8{19}  >10 км    5/1 600 м кучево-дожд., средняя 
[Cb calv|Ac trans]
+12.2 +5.1 62 +11  1007.1  -2.5  716  275           
03 02.10.11 280 (З) 9{19}  4000 м  ливневой дождь  10/6 300 м кучево-дожд., средняя 
[Cb cap|Ac und]
+9.8 +7 83 +7  1006.8  -0.7  715  277           
06 02.10.11 300 (СЗ) 4000 м  ливневой дождь  10/8 400 м кучево-дожд., средняя 
[Cb cap|Ac und]
+9.3 +8.3 94 +8    1.2  716  278  +9.2       
09 02.10.11 290 (З) >10 км  {ливн. осадки}  9/6 700 м кучево-дожд., средняя 
[Cb calv|Ac trans]
+10.7 +6.8 77 +10  1009.4  1.4  717  277           
12 02.10.11 300 (СЗ) >10 км  {ливн. осадки}  9/6 700 м кучево-дожд., средняя 
[Cb calv|Ac trans]
+11.8 +5.7 66 +11  1009  -0.2  717  276           
15 02.10.11 260 (З) >10 км    8/3 900 м кучево-дожд., средняя 
[Cb cap|Ac trans]
+9.4 +4.9 74 +8  1009.9  -0.2  717  279    +13.3       
18 02.10.11 260 (З) >10 км    9/3 600 м кучево-дожд., средняя 
[Cb calv|Ac trans]
+8.5 +5.8 83 +7  1010  717  279    +13.3     
21 02.10.11 280 (З) >10 км    4/1 1000 м кучево-дожд., средняя 
[Cb calv|Ac trans]
+6.7 +4.4 85 +5  1010.7  0.3  718  281           
00 03.10.11 290 (З) >10 км    9/6 540 м кучево-дожд., средняя 
[Cb calv|Ac trans]
+6.1 +4.5 89 +5  1012.6  1.7  719  283           
03 03.10.11 280 (З) >10 км    3/1 300 м кучево-дожд., средняя 
[Cb calv|Ac trans]
+3 +1.7 91 1014.9  1.6  720  287           
06 03.10.11 280 (З) >10 км    8/8 400 м кучево-дожд. 
[Cb calv]
+5.6 +2.3 79 +2  1015.8  1.3  721  284  +3         
09 03.10.11 270 (З) 10  >10 км    9/9 750 м кучево-дожд. 
[Cb calv]
+7.2 +2 69 +4  1016.4  0.9  722  283           
12 03.10.11 280 (З) >10 км    10/6 660 м кучево-дожд., средняя 
[Cb calv|Ac und]
+7.2 +2.2 70 +5  1017.2  0.7  722  283           
15 03.10.11 280 (З) >10 км  слаб. ливневой дождь  10/6 480 м кучево-дожд., средняя 
[Cb cap|Ac und]
+5.2 +3.1 86 +3  1019.1  1.4  723  285    +8.6       
18 03.10.11 270 (З) >10 км  {ливн. осадки}  3/0 средняя 
[Ac trans]
+5.6 +2.3 79 +3  1020.5  1.4  724  286    +8.6  0.8     
00 04.10.11 260 (З) >10 км    3/3 600 м 
[Sc]
+6.1 +3.1 81 +3  1020.3  0.3  724  285           
03 04.10.11 260 (З) >10 км    5/5 600 м 
[Sc]
+6.7 +2.6 75 +4  1020.1  726  285           
06 04.10.11 280 (З) >10 км    8/3 300 м средняя 
[Sc|Ac trans]
+9.3 +3.2 66 +7  1020.1  0.5  725  282  +5.2    0.0     
09 04.10.11 270 (З) 10  >10 км    10/4 600 м средняя 
[Sc|Ac und]
+12 +5.1 63 +10  1018.8  -0.7  724  279           
12 04.10.11 280 (З) >10 км    9/3 600 м средняя 
[Sc|Ac trans]
+12.7 +4.9 59 +11  1017.5  -1.2  723  278           
15 04.10.11 270 (З) >10 км    10/4 600 м кучево-дожд., средняя 
[Cb calv|Ac und]
+12.4 +5.8 64 +11  1017.1  -0.4  723  278    +13.5       
18 04.10.11 270 (З) >10 км    10/5 600 м кучево-дожд., средняя 
[Cb calv|Ac und]
+9.8 +6.4 79 +8  1017.9  0.2  723  280    +13.5       
21 04.10.11 250 (З) >10 км  {ливн. осадки}  10/4 600 м кучево-дожд., средняя 
[Cb calv|Ac und]
+11.6 +4.9 63 +10  1016.9  -0.6  723  279           
00 05.10.11 250 (З) >10 км  слаб. ливневой дождь  10/6 700 м кучево-дожд., средняя 
[Cb cap|Ac und]
+10 +6.7 80 +8  1016.4  -0.8  722  280           
03 05.10.11 250 (З) >10 км  в посл. час ливневой дождь  10/6 750 м кучево-дожд., средняя 
[Cb calv|Ac und]
+11.3 +6 70 +10  1015.7  -0.4  722  278           
06 05.10.11 260 (З) >10 км  {ливн. осадки}  10/4 600 м кучево-дожд., средняя 
[Cb calv|Ac und]
+12.8 +5.1 59 +12  1016.1  0.7  722  277  +9.6    0.0    влажная 
09 05.10.11 260 (З) >10 км  слаб. ливневой дождь  9/6 660 м кучево-дожд., средняя 
[Cb calv|Ac trans]
+12.9 +9.4 79 +12  1017  0.9  723  276           
12 05.10.11 280 (З) >10 км  {ливн. осадки}  8/4 600 м кучево-дожд., средняя 
[Cb calv|Ac trans]
+15.7 +10 69 +17  1016.8  0.3  723  274           
15 05.10.11 260 (З) >10 км    8/3 600 м кучево-дожд., средняя, верхняя 
[Cb calv|Ac trans|Ci fib]
+13.2 +9.5 78 +13  1017.9  0.6  724  276    +15.9       
18 05.10.11 270 (З) >10 км    3/0 средняя 
[Ac trans]
+12.8 +8.9 77 +12  1018.8  0.7  724  277    +15.9  0.3     
21 05.10.11 270 (З) >10 км    3/0 средняя 
[Ac trans]
+13.5 +9.6 77 +13  1018.8  0.1  724  276           
00 06.10.11 270 (З) >10 км    3/0 средняя 
[Ac trans]
+13.6 +9.6 77 +14  1018.7  724  276           
03 06.10.11 250 (З) >10 км    6/4 600 м кучево-дожд., средняя 
[Cb calv|Ac trans]
+13.8 +9.5 75 +14  1018.4  -0.3  724  276           
06 06.10.11 240 (ЮЗ) 10 км  слаб. ливневой дождь  10/5 900 м кучево-дожд., средняя 
[Cb cap|Ac und]
+12.7 +11.5 92 +16  1019.6  0.9  725  277  +12.4         
09 06.10.11 240 (ЮЗ) >10 км  {ливн. осадки}  6/3 600 м кучево-дожд., средняя 
[Cb cap|Ac As]
+17.1 +12.5 74 +22  1018.1  -0.6  724  272           
12 06.10.11 250 (З) >10 км  {ливн. осадки}  6/4 1000 м кучево-дожд., средняя 
[Cb calv|Ac trans]
+18.1 +12.8 71 +24  1017.3  -0.5  724  271           
15 06.10.11 250 (З) >10 км    5/0 средняя 
[Ac trans]
+16.5 +13 80 +23  1018  0.4  724  273    +19.9       
18 06.10.11 260 (З) >10 км    3/0 средняя 
[Ac trans]
+15 +12.4 84 +20  1018.7  0.4  725  274    +19.9     
21 06.10.11 270 (З) >10 км    3/0 средняя 
[Ac trans]
+13.9 +11.5 85 +18  1019.2  0.3  725  276           
00 07.10.11 260 (З) >10 км    ясно 
+12.7 +10.7 88 +16  1019.3  -0.2  725  277           
03 07.10.11 240 (ЮЗ) >10 км    3/0 средняя 
[Ac trans]
+10 +9.1 94 +11  1019.6  -0.2  725  280           
06 07.10.11 150 (ЮВ) >10 км    ясно 
+16.3 +12 76 +23  1018.7  0.3  725  273  +9.9         
09 07.10.11 200 (Ю) >10 км    5/5 600 м 
[Cu hum]
+21.7 +8.9 44 +22  1016.7  -1  724  269           
12 07.10.11 050 (СВ) >10 км    6/6 700 м 
[Cu hum]
+22.2 +9 43 +23  1015.7  -0.9  723  268           
15 07.10.11 040 (СВ) >10 км    3/0 средняя 
[Ac trans]
+17.6 +9.5 59 +19  1016.5  723  272    +22.6       
18 07.10.11 080 (В) >10 км    ясно 
+13.3 +9 75 +15  1017.4  0.1  723  276    +22.6       
21 07.10.11 090 (В) >10 км    ясно 
+11.3 +8.4 82 +12  1016.7  -1.1  723  278           
00 08.10.11 090 (В) >10 км    ясно 
+11 +8.5 85 +11  1015.9  -0.7  722  278           
03 08.10.11 100 (В) >10 км    ясно 
+9.7 +8.3 91 +9  1016.1  -0.7  722  279           
06 08.10.11 120 (ЮВ) >10 км    ясно 
+14.9 +11.5 80 +19  1015  722  274  +9.5         
09 08.10.11 130 (ЮВ) >10 км    ясно 
+19.5 +11.7 61 +24  1013.6  -0.6  722  269           
12 08.10.11 130 (ЮВ) >10 км    ясно 
+19.6 +11.3 59 +24  1013.1  -0.5  721  269           
15 08.10.11 130 (ЮВ) >10 км    1/0 средняя 
[Ac trans]
+15.3 +11.3 77 +19  1014.5  0.6  722  273    +19.7       
18 08.10.11 140 (ЮВ) >10 км    ясно 
+13.7 +11.3 85 +17  1015.1  0.2  722  275    +19.7       
21 08.10.11 120 (ЮВ) >10 км    ясно 
+11.8 +10.6 92 +14  1015.4  722  277           
00 09.10.11 150 (ЮВ) >10 км    ясно 
+11.2 +10.4 95 +12  1015.5  -0.1  722  277           
03 09.10.11 130 (ЮВ) 10 км    ясно 
+10.1 +9.7 97 +11  1016.2  0.5  722  279           
06 09.10.11 130 (ЮВ) >10 км  {туман}  ясно 
+14.1 +12.1 88 +19  1016  0.6  723  274  +10.1         
09 09.10.11 120 (ЮВ) >10 км    3/0 средняя 
[Ac trans]
+21.5 +11.3 52 +25  1014.4  -0.3  722  268           
12 09.10.11 100 (В) >10 км    6/0 средняя, верхняя 
[Ac trans|Ci]
+23.5 +8.6 39 +24  1013  -1  722  266           
15 09.10.11 110 (В) >10 км    8/0 средняя, верхняя 
[Ac trans|Ci fib]
+18.7 +11.7 64 +23  1014.1  0.3  722  270    +24.2       
18 09.10.11 130 (ЮВ) >10 км    8/0 средняя 
[Ac trans]
+15.2 +11.5 79 +19  1015  0.2  722  273    +24.2       
21 09.10.11 130 (ЮВ) >10 км    8/0 средняя 
[Ac trans]
+15.8 +12.2 79 +21  1013.7  -1.1  721  272           
00 10.10.11 150 (ЮВ) >10 км    3/0 средняя 
[Ac trans]
+14.3 +12.4 88 +19  1013.8  0.1  721  274           
03 10.10.11 130 (ЮВ) 10 км    8/0 средняя 
[Ac trans]
+12 +11.4 96 +15  1013.9  -0.6  721  276           
06 10.10.11 130 (ЮВ) >10 км  дымка{туман}  8/0 средняя 
[Ac trans]
+14.3 +13.2 93 +21  1013.3  -0.2  721  273  +11.9         
09 10.10.11 100 (В) >10 км    8/0 средняя 
[Ac trans]
+19.6 +12.5 64 +26  1011.7  -0.6  720  268           
12 10.10.11 110 (В) >10 км    8/0 средняя 
[Ac trans]
+22.3 +11.9 52 +27  1011.5  0.3  720  266           
15 10.10.11 тихо ()   >10 км    10/0 средняя 
[Ac und]
+19.2 +13.2 68 +26  1012.6  0.6  721  269    +22.6       
18 10.10.11 040 (СВ) >10 км    8/0 средняя 
[Ac trans]
+17.4 +13.8 79 +27  1013.7  0.7  721  270    +22.6       
21 10.10.11 190 (Ю) >10 км    8/0 средняя 
[Ac trans]
+15.6 +13.1 85 +22  1014.1  0.1  721  272           
00 11.10.11 160 (Ю) >10 км    3/0 средняя 
[Ac trans]
+16.7 +10.8 68 +21  1013.2  -0.8  721  272           
03 11.10.11 190 (Ю) >10 км    4/0 средняя 
[Ac trans]
+13.9 +9.1 73 +15  1013.8  721  275           
06 11.10.11 140 (ЮВ) >10 км    6/0 верхняя 
[Ci fib]
+22.9 +9.6 43 +24  1012.7  0.6  721  266  +13.3         
09 11.10.11 070 (В) >10 км    3/0 верхняя 
[Ci fib]
+27.6 +6 25 +28  1011.6  -0.3  721  263           
12 11.10.11 050 (СВ) >10 км    4/0 верхняя 
[Ci fib]
+28.9 +5.6 23 +29  1010.9  -0.5  721  262           
15 11.10.11 080 (В) >10 км    8/0 средняя, верхняя 
[Ac trans|Ci fib]
+22.1 +6.3 36 +22  1011.6  -0.4  720  267    +29.4       
18 11.10.11 130 (ЮВ) >10 км    ясно 
+20 +11 56 +23  1011.6  -0.3  720  268    +29.4       
21 11.10.11 130 (ЮВ) >10 км    4/0 верхняя 
[Ci fib]
+18.2 +11.2 64 +23  1010.9  -1  719  270           
00 12.10.11 150 (ЮВ) >10 км    4/0 средняя 
[Ac trans]
+18.3 +10.3 60 +21  1009.6  -1.2  719  269           
03 12.10.11 190 (Ю) >10 км    5/0 средняя 
[Ac trans]
+16.5 +10.4 67 +20  1009.5  -0.4  718  271           
06 12.10.11 150 (ЮВ) >10 км    8/3 1000 м кучево-дожд., средняя, верхняя 
[Cb calv|Ac trans|Ci fib]
+18.3 +11.6 65 +23  1008.1  -1  717  269  +15.9         
09 12.10.11 140 (ЮВ) >10 км    4/0 верхняя 
[Ci fib]
+27.7 +9.5 32 +29  1004.9  -1.6  716  260           
12 12.10.11 350 (С) >10 км    6/0 средняя, верхняя 
[Ac trans|Ci]
+29.5 +9.6 29 +31  1002.9  -1.6  715  258           
15 12.10.11 300 (СЗ) 10 км  слаб. ливневой дождь  9/8 1000 м кучево-дожд., средняя 
[Cb cap|Ac trans]
+21.6 +13.8 61 +29  1004.8  0.6  716  264           
18 12.10.11 280 (З) 10  >10 км  {ливн. осадки}  8/3 1000 м кучево-дожд., средняя 
[Cb cap|Ac trans]
+17.5 +14.4 82 +26  1006.8  1.2  716  268    +30.1  0.0     
21 12.10.11 180 (Ю) >10 км  слаб. ливневой дождь  9/8 1000 м кучево-дожд., средняя 
[Cb cap|Ac trans]
+15.1 +14.4 96 +24  1006.1  1.2  716  270           
00 13.10.11 240 (ЮЗ) >10 км  {ливн. осадки}  10/4 1000 м кучево-дожд., средняя 
[Cb cap|Ac und]
+15.9 +13.4 85 +23  1004.9  -1  715  269           
03 13.10.11 260 (З) >10 км    10/3 600 м кучево-дожд., средняя 
[Cb cap|Ac As]
+15 +12.2 83 +19  1005.4  0.3  715  271           
06 13.10.11 290 (З) >10 км    10/6 700 м кучево-дожд., средняя 
[Cb calv|Ac und]
+14.4 +12.1 86 +19  1007.7  717  272  +14.4       
09 13.10.11 280 (З) >10 км    8/5 300 м кучево-дожд., средняя 
[Cb calv|Ac und]
+13.9 +11 83 +16  1009.1  1.3  718  273           
12 13.10.11 270 (З) >10 км    10/5 600 м кучево-дожд., средняя 
[Cb calv|Ac und]
+14.7 +11.4 81 +19  1010.4  1.4  719  273           
15 13.10.11 270 (З) 10 км  в посл. час ливневой дождь  10/6 630 м кучево-дожд., средняя 
[Cb calv|Ac und]
+13.6 +12.2 91 +18  1012.5  1.8  720  274    +15.4       
18 13.10.11 290 (З) 10 км  слаб. ливневой дождь  10/8 600 м кучево-дожд., средняя 
[Cb cap|Ac und]
+12 +11.2 95 +15  1014.9  1.9  721  276    +15.4     
21 13.10.11 320 (СЗ) >10 км  {ливн. осадки}  10/6 540 м кучево-дожд., средняя 
[Cb calv|Ac und]
+11.3 +10.1 92 +14  1016.4  1.3  722  278           
00 14.10.11 330 (СЗ) >10 км  {ливн. осадки}  10/8 600 м кучево-дожд., средняя 
[Cb calv|Ac und]
+10.1 +8.6 90 +10  1017.2  0.5  723  279           
03 14.10.11 340 (С) >10 км    10/6 800 м кучево-дожд., средняя 
[Cb calv|Ac und]
+9.8 +7.7 87 +11  1017.8  0.5  723  280           
06 14.10.11 160 (Ю) >10 км  слаб. ливневой дождь  10/8 200 м кучево-дожд., средняя 
[Cb calv|Ac und]
+10.4 +7.5 82 +12  1018  0.3  723  279  +9.8         
09 14.10.11 050 (СВ) 10 км  слаб. ливневой дождь  10/8 200 м кучево-дожд., средняя 
[Cb calv|Ac und]
+9.5 +8.6 94 +9  1018.2  723  280           
12 14.10.11 040 (СВ) 10 км  в посл. час ливневой дождь  10/8 240 м кучево-дожд., средняя 
[Cb calv|Ac und]
+9.3 +8.2 93 +8  1018  -0.2  723  280           
15 14.10.11 020 (С) >10 км    10/10 720 м 
[Sc diur, vesp]
+8.4 +7 91 +7  1018.5  0.4  724  282    +10.6       
18 14.10.11 360 (С) 10 км  слаб. дождь  10/5 180 м 
[St]
+6.3 +5.9 97 +5  1021.2  2.1  725  285    +10.6       
21 14.10.11 310 (СЗ) >10 км  слаб. ливневой дождь  10/8 240 м кучево-дожд., средняя 
[Cb calv|Ac und]
+5.9 +5.6 98 +6  1022.6  1.2  726  285           
00 15.10.11 320 (СЗ) >10 км  {ливн. осадки, дождь}  10/4 150 м кучево-дожд., средняя 
[Cb calv|Ac As]
+6.2 +5.8 97 +6  1023.1  0.5  726  285           
03 15.10.11 250 (З) >10 км  слаб. ливневой дождь  10/8 240 м кучево-дожд., средняя 
[Cb cap|Ac und]
+6.3 +5.7 96 +7  1024.1  727  285           
06 15.10.11 360 (С) >10 км  {ливн. осадки}  10/6 210 м кучево-дожд., средняя 
[Cb calv|Ac und]
+6.6 +5.7 94 +8  1024.7  0.6  728  285  +5.9    12     
09 15.10.11 120 (ЮВ) >10 км    10/6 360 м кучево-дожд., средняя 
[Cb calv|Ac und]
+7.6 +6.4 92 +8  1024.6  0.1  728  284           
12 15.10.11 100 (В) >10 км    9/5 300 м кучево-дожд., средняя 
[Cb calv|Ac trans]
+8.8 +5.9 82 +8  1023.8  -0.5  727  283           
15 15.10.11 070 (В) >10 км    10/3 300 м кучево-дожд., средняя 
[Cb calv|Ac und]
+7.4 +6 91 +7  1024.3  0.2  727  284    +9.1       
18 15.10.11 050 (СВ) 10 км  слаб. дождь  10/6 330 м средняя 
[Sc|Ac und]
+6.8 +6.2 96 +5  1024  -0.4  727  285    +9.1     
21 15.10.11 040 (СВ) 4000 м  слаб. дождь  10/8 120 м средняя 
[St|Ac und]
+6.2 +5.8 97 +5  1023.1  -1  726  285           
00 16.10.11 060 (СВ) >10 км  {дождь}  10/4 600 м средняя 
[Sc|Ac und]
+5.5 +4.5 93 +4  1022.4  -0.8  726  286           
03 16.10.11 070 (В) 10 км    10/6 180 м средняя 
[St|Ac und]
+5.5 +4.9 96 +3  1022  -0.5  725  286           
06 16.10.11 080 (В) 10 км    10/8 180 м кучево-дожд., средняя 
[Cb calv|Ac und]
+5.9 +5.3 96 +4  1021  -0.8  725  285  +5.4    0.9     
09 16.10.11 060 (СВ) 10 км    10/8 240 м средняя 
[Frnb|Ac und]
+6.6 +5.6 93 +4  1020.2  -0.6  724  284           
12 16.10.11 040 (СВ) 2000 м  слаб. ливневой дождь  10/8 120 м кучево-дожд., средняя 
[Cb cap|Ac und]
+5.9 +5.5 97 +4  1021.5  1.1  725  285           
15 16.10.11 050 (СВ) 0200 м  туман{ливн. осадки}  ?/?  
+5.5 +5.2 98 +3  1020.8  -0.8  725  285    +6.6       
18 16.10.11 070 (В) 0500 м  ливневой дождь{туман}  ?/?  
+5.7 +5.5 99 +4  1021.2  0.5  725  285    +6.6     
21 16.10.11 080 (В) 0800 м  туман{ливн. осадки}  ?/?  
+5.2 +5 99 +2  1019.9  -1.4  724  285           
00 17.10.11 080 (В) 0600 м  ливневой дождь{туман}  ?/?  
+5.2 +5 99 +4  1020.3  0.3  724  286           
03 17.10.11 080 (В) 1000 м    10/8 100 м кучево-дожд., средняя 
[Cb cap|Ac und]
+5.5 +5.3 99 +3  1020.1  0.3  724  285           
06 17.10.11 080 (В) 0500 м  слаб. ливневой дождь{туман}  ?/?  
+5.7 +5.5 99 +4  1020.1  724  285  +5.1       
09 17.10.11 080 (В) 2000 м  дымка{ливн. осадки, туман}  10/10 60 м 
[St]
+6.3 +6.1 99 +4  1019.7  -0.2  724  284           
12 17.10.11 090 (В) 4000 м  дымка{ливн. осадки, туман}  10/10 100 м 
[St]
+6.4 +6.2 99 +4  1020  0.3  724  284           
15 17.10.11 090 (В) 0900 м  туман  ?/?  
+5.7 +5.5 99 +3  1020.9  0.7  725  285    +6.9       
18 17.10.11 110 (В) 10 км  {туман}  10/10 210 м 
[St]
+6 +5.8 99 +4  1020.9  725  285    +6.9  0.6     
21 17.10.11 110 (В) 1300 м  дымка  10/10 60 м 
[St]
+6.5 +6.3 99 +4  1019.2  -1.5  724  284           
00 18.10.11 110 (В) 0500 м  туман  10/0 
+6.8 +6.6 99 +4  1017.1  -1.8  722  283           
03 18.10.11 090 (В) 0200 м  туман  ?/?  
+7 +6.8 99 +5  1015.6  -1.4  721  282           
06 18.10.11 100 (В) 0200 м  туман  ?/?  
+7.4 +7.2 99 +5  1015.2  -0.3  721  282  +5.6    0.6     
09 18.10.11 110 (В) >10 км  {туман}  9/6 240 м верхняя 
[St|Ci fib]
+10.3 +9.1 92 +9  1013.1  -1.4  720  278           
12 18.10.11 100 (В) >10 км  {туман}  10/8 300 м средняя 
[Sc|Ac und]
+10.8 +9.1 89 +11  1013.7  0.7  720  278           
15 18.10.11 120 (ЮВ) 10 км    10/10 120 м 
[St]
+9.2 +8.7 97 +8  1014.9  0.8  721  279    +11       
18 18.10.11 140 (ЮВ) 0300 м  туман  ?/?  
+8.6 +8.3 98 +8  1015.4  0.3  721  280           
21 18.10.11 120 (ЮВ) 2000 м  дымка{ливн. осадки, туман}  10/10 100 м 
[St]
+8.9 +8.7 99 +8  1014.3  -1  721  280           
00 19.10.11 320 (СЗ) 10 км  слаб. ливневой дождь{туман}  10/8 210 м кучево-дожд., средняя 
[Cb cap|Ac und]
+10.2 +10 99 +11  1012.2  -1.8  719  277           
03 19.10.11 280 (З) >10 км  в посл. час ливневой дождь  10/8 240 м кучево-дожд., средняя 
[Cb calv|Ac und]
+8.5 +7.4 93 +7  1014.1  1.5  720  280           
06 19.10.11 290 (З) >10 км  в посл. час ливневой дождь  10/6 1000 м кучево-дожд., средняя 
[Cb calv|Ac und]
+7.8 +6.8 93 +6  1016.2  1.9  722  282  +8.4       
09 19.10.11 280 (З) >10 км    10/5 600 м средняя 
[Sc diur, vesp|Ac und]
+9.1 +7.1 87 +8  1016.2  0.2  722  280           
12 19.10.11 300 (СЗ) >10 км    9/5 600 м средняя 
[Sc|Ac trans]
+9.9 +6.5 79 +10  1016.6  0.6  722  280           
15 19.10.11 250 (З) >10 км    9/3 600 м кучево-дожд., средняя 
[Cb calv|Ac trans]
+7.7 +6.3 91 +8  1018.5  1.4  723  282    +10.2       
18 19.10.11 270 (З) >10 км    10/0 средняя 
[Ac und]
+9.2 +6.8 85 +8  1019.4  1.1  724  281    +10.2     
21 19.10.11 280 (З) >10 км    10/0 средняя 
[Ac und]
+8.2 +6.2 87 +7  1019.8  1.1  724  282           
00 20.10.11 290 (З) >10 км  дымка  10/6 210 м средняя 
[St|Ac und]
+7.7 +7.2 97 +6  1019.6  -0.2  724  283           
03 20.10.11 290 (З) >10 км  слаб. дождь  10/6 420 м средняя 
[Sc|Ac und]
+7.2 +5.6 90 +5  1021  1.2  725  284           
06 20.10.11 290 (З) >10 км  в посл. час дождь  10/10 540 м 
[Sc diur, vesp]
+7 +5.8 92 +5  1022  0.9  726  284  +7.2    0.3     
09 20.10.11 280 (З) 10 км  слаб. ливневой дождь  10/8 480 м кучево-дожд., средняя 
[Cb cap|Ac und]
+7.9 +6.7 92 +6  1021.9  -0.1  726  283           
12 20.10.11 280 (З) 10 км  слаб. ливневой дождь  10/8 360 м кучево-дожд., средняя 
[Cb cap|Ac und]
+8.1 +7 93 +6  1021.8  726  283           
15 20.10.11 290 (З) 4000 м  дымка{ливн. осадки}  10/6 270 м кучево-дожд., средняя 
[Cb calv|Ac und]
+8.1 +7.3 95 +6  1023.1  1.3  727  283    +8.1       
18 20.10.11 300 (СЗ) 2000 м  дымка{ливн. осадки}  10/6 180 м кучево-дожд., средняя 
[Cb calv|Ac und]
+8 +7.4 96 +7  1024.1  0.9  727  283    +8.1  0.3     
21 20.10.11 290 (З) 1200 м  дымка{ливн. осадки}  10/8 120 м кучево-дожд., средняя 
[Cb calv|Ac und]
+8 +7.5 97 +7  1024.5  0.9  728  284           
00 21.10.11 300 (СЗ) 1000 м  дымка{ливн. осадки}  10/10 100 м 
[St]
+8.1 +7.7 97 +7  1024.5  0.1  728  283           
03 21.10.11 320 (СЗ) 1200 м  дымка{туман}  10/10 120 м 
[St]
+8 +7.7 98 +7  1024.8  0.3  728  284           
06 21.10.11 290 (З) 4000 м  дымка{туман}  10/10 270 м 
[St]
+8.3 +7.1 92 +8  1025.8  0.9  729  284  +7.9    0.5     
09 21.10.11 320 (СЗ) 10 км    10/8 450 м средняя 
[Sc|Ac und]
+10 +7.8 86 +10  1025.1  -0.3  728  282           
12 21.10.11 320 (СЗ) 4000 м  дымка  10/8 270 м средняя 
[St|Ac und]
+8.8 +7.3 90 +9  1025.4  728  283           
15 21.10.11 320 (СЗ) 4000 м  дымка  10/8 210 м средняя 
[St|Ac und]
+7.9 +6.7 92 +8  1026.3  0.7  729  284    +10.3       
18 21.10.11 340 (С) 4000 м  дымка  10/10 240 м 
[St]
+8.1 +6.6 90 +9  1026.1  -0.2  729  284    +10.3       
21 21.10.11 060 (СВ) 4000 м  дымка  10/8 360 м средняя 
[Sc|Ac und]
+8 +7 93 +9  1025.5  -0.6  728  284           
00 22.10.11 050 (СВ) 4000 м  дымка  10/8 120 м средняя 
[St|Ac und]
+7.8 +7.3 97 +9  1025.7  0.1  728  284           
03 22.10.11 080 (В) 3000 м  дымка  10/10 100 м 
[St]
+7.8 +7.3 97 +9  1025.7  0.1  728  284           
06 22.10.11 010 (С) 10 км    10/8 480 м средняя 
[Sc|Ac und]
+8.6 +6.5 87 +9  1026.1  0.6  729  284  +7.7         
09 22.10.11 050 (СВ) >10 км    10/8 500 м средняя 
[Sc|Ac und]
+9.6 +7.2 85 +10  1025.5  -0.3  729  282           
12 22.10.11 040 (СВ) 10 км    10/8 300 м средняя 
[Sc|Ac und]
+9.1 +7.3 88 +9  1025.3  -0.3  728  283           
15 22.10.11 070 (В) 4000 м  дымка  10/8 360 м средняя 
[Sc|Ac und]
+7.9 +7.3 96 +8  1025.8  0.3  729  284    +9.6       
18 22.10.11 060 (СВ) 4000 м  дымка{дождь}  10/8 120 м средняя 
[St|Ac und]
+7.7 +7.2 97 +8  1025.9  729  284    +9.6       
21 22.10.11 070 (В) 1100 м  дымка{дождь}  10/10 60 м 
[St]
+7.5 +7.2 98 +7  1025.2  -0.7  728  284           
00 23.10.11 070 (В) 0200 м  туман{дождь}  ?/?  
+7.4 +7.2 99 +7  1025  -0.2  728  284           
03 23.10.11 060 (СВ) 0200 м  туман  ?/?  
+7.3 +7.1 99 +7  1025  728  284           
06 23.10.11 080 (В) 3000 м  дымка{туман}  10/8 150 м средняя 
[St|Ac und]
+7.5 +7.3 99 +7  1025.7  0.8  728  284  +7.3    0.0     
09 23.10.11 090 (В) 4000 м  дымка  10/8 210 м средняя 
[St|Ac und]
+8.5 +7.6 94 +9  1025.2  -0.3  728  283           
12 23.10.11 100 (В) 4000 м  дымка  10/8 300 м средняя 
[Sc|Ac und]
+9.4 +7.6 89 +9  1024.7  -0.3  728  282           
15 23.10.11 140 (ЮВ) 10 км    10/8 450 м средняя 
[Sc|Ac und]
+8.5 +7.5 93 +9  1025.3  0.4  728  283    +9.4       
18 23.10.11 тихо ()   >10 км    10/6 800 м средняя 
[Sc|Ac und]
+8 +7.4 96 +8  1025.3  0.4  728  284    +9.4       
21 23.10.11 060 (СВ) 3000 м  дымка  10/6 100 м средняя 
[St|Ac und]
+7.6 +7.2 97 +8  1024.6  -0.7  728  284           
00 24.10.11 050 (СВ) 10 км    10/6 500 м средняя 
[Sc|Ac und]
+7.5 +6.8 95 +8  1024.4  -0.2  728  284           
03 24.10.11 030 (СВ) 2000 м  дымка  10/6 100 м средняя 
[St|Ac und]
+7.2 +6.8 97 +8  1024.2  -0.3  727  284           
06 24.10.11 030 (СВ) 4000 м  дымка  10/8 240 м средняя 
[St|Ac und]
+7.7 +7 95 +8  1024.8  0.6  728  284  +7.2         
09 24.10.11 010 (С) 10 км    10/8 270 м средняя 
[St|Ac und]
+8.7 +7.2 90 +9  1024.2  -0.3  728  283           
12 24.10.11 010 (С) 1500 м  слаб. морось  10/10 60 м 
[St]
+7.4 +7 97 +7  1024.3  -0.2  727  284           
15 24.10.11 010 (С) 4000 м  дымка{морось}  10/6 420 м средняя 
[Sc|Ac und]
+6.9 +5.3 90 +7  1024.9  0.5  728  285    +9.1       
18 24.10.11 020 (С) >10 км  {морось}  ясно <0100 м 
+6.3 +4.2 86 +6  1024.8  -0.2  728  286    +9.1  0.3     
21 24.10.11 010 (С) >10 км    8/3 630 м средняя 
[Sc|Ac trans]
+4.1 +1.8 85 +3  1025.3  728  289           
00 25.10.11 360 (С) >10 км    10/4 600 м средняя 
[Sc|Ac und]
+3.3 +1 85 +3  1025.4  728  289           
03 25.10.11 030 (СВ) >10 км    8/5 180 м средняя 
[St|Ac trans]
+2.5 +1.5 93 +2  1026.4  0.8  728  290           
06 25.10.11 050 (СВ) >10 км    8/6 210 м средняя 
[St|Ac trans]
+2.5 +1.5 93 1026.4  1.4  729  291  +2.2         
09 25.10.11 060 (СВ) >10 км    10/10 700 м 
[Sc]
+5.6 +0.9 72 +4  1026.9  -0.3  729  288           
12 25.10.11 050 (СВ) >10 км    10/10 570 м 
[Sc]
+5 +1 75 +3  1026.6  -0.3  729  288           
15 25.10.11 060 (СВ) >10 км    10/10 750 м 
[Sc]
+3.7 +1.6 86 +1  1027.5  0.6  729  290    +5.8       
18 25.10.11 060 (СВ) >10 км    10/10 900 м 
[Sc]
+2.6 -0.9 78 +1  1028.2  0.4  729  291    +5.8       
21 25.10.11 080 (В) >10 км    1/0 средняя 
[Ac trans]
-0.9 -2.4 90 -3  1028.4  -0.5  729  295           
00 26.10.11 070 (В) >10 км    1/0 средняя 
[Ac trans]
-1.8 -3 92 -5  1028  -0.6  729  296           
03 26.10.11 070 (В) >10 км    3/0 средняя 
[Ac trans]
-2.2 -3.8 89 -5  1028.3  0.2  729  296           
06 26.10.11 080 (В) >10 км    3/0 верхняя 
[Ci fib]
+1.2 -2.8 75 -2  1028.4  0.8  729  293  -2.4         
09 26.10.11 080 (В) >10 км    8/6 600 м верхняя 
[Sc|Ci fib]
+3.7 -2.6 63 +1  1027.4  -0.4  729  290           
12 26.10.11 060 (СВ) >10 км    9/5 800 м средняя 
[Sc|Ac trans]
+4.3 -1.7 65 +2  1027.1  -0.2  729  289           
15 26.10.11 070 (В) >10 км    10/8 870 м средняя 
[Sc|Ac und]
+1.9 -2.8 71 -2  1028.7  730  292    +5.8       
18 26.10.11 070 (В) >10 км    6/3 1000 м средняя 
[Sc|Ac trans]
-0.3 -3.6 78 -3  1029.4  0.2  730  295    +5.8       
21 26.10.11 090 (В) >10 км    3/0 средняя 
[Ac trans]
-2.2 -4.2 86 -5  1030.1  0.3  730  297           
00 27.10.11 090 (В) >10 км    3/0 средняя 
[Ac trans]
-3.6 -5 90 -6  1030.4  730  299           
03 27.10.11 090 (В) >10 км    3/0 средняя 
[Ac trans]
-3.9 -5.4 89 -7  1030.9  0.4  730  299           
06 27.10.11 100 (В) >10 км    6/0 верхняя 
[Ci]
+0.3 -3.2 77 -3  1031.2  1.2  731  295  -3.9         
09 27.10.11 090 (В) >10 км    3/0 верхняя 
[Ci fib]
+5.2 -2.8 56 +2  1029.8  -0.4  731  289           
12 27.10.11 080 (В) >10 км    3/0 средняя, верхняя 
[Ac trans|Ci fib]
+6.1 -2.6 54 +4  1029.4  -0.2  731  288           
15 27.10.11 070 (В) >10 км    ясно 
+0.6 -3 77 -2  1031.2  0.7  731  294    +6.3       
18 27.10.11 100 (В) >10 км    ясно 
-2.4 -4.6 85 -4  1032.7  0.8  732  298    +6.3       
21 27.10.11 120 (ЮВ) >10 км    ясно 
-2.8 -4.5 88 -5  1032.5  -0.3  732  298           
00 28.10.11 150 (ЮВ) >10 км    ясно 
-3.5 -5.3 87 -6  1032.6  0.1  732  299           
03 28.10.11 130 (ЮВ) >10 км    ясно 
-3.5 -5.5 86 -5  1033  0.4  732  299           
06 28.10.11 110 (В) >10 км    ясно 
+0.2 -3.5 76 -2  1032.9  0.7  732  295  -4.1         
09 28.10.11 100 (В) >10 км    ясно 
+5.2 -2.6 57 +4  1031.6  -0.3  732  290           
12 28.10.11 070 (В) >10 км    ясно 
+6.8 -2.8 50 +5  1030.6  -0.6  732  288           
15 28.10.11 060 (СВ) >10 км    ясно 
+1.9 -2.3 74 1032.2  0.5  732  293    +7       
18 28.10.11 070 (В) >10 км    ясно 
-1 -3.4 84 -4  1033.3  0.4  733  297    +7       
21 28.10.11 100 (В) >10 км    ясно 
-3.6 -4.8 91 -6  1033.6  -0.2  732  300           
00 29.10.11 110 (В) >10 км    ясно 
-3.2 -4.3 92 -5  1033  -0.6  732  299           
03 29.10.11 100 (В) >10 км    ясно 
-4.4 -5.1 95 -7  1032.9  -0.3  732  300           
06 29.10.11 120 (ЮВ) >10 км    ясно 
-0.2 -2.1 87 -3  1032.4  0.4  732  295  -4.6         
09 29.10.11 100 (В) >10 км    1/1 300 м 
[Cu hum]
+5 -1.7 62 +2  1030.4  -0.8  731  290           
12 29.10.11 090 (В) >10 км    1/0 средняя 
[Ac trans]
+6.1 -1.7 57 +3  1029.1  -1.1  731  288           
15 29.10.11 080 (В) >10 км    4/0 верхняя 
[Ci]
+0.5 -2 83 -2  1030.3  0.1  731  294    +6.4       
18 29.10.11 110 (В) >10 км    ясно 
-2.4 -3.6 91 -5  1030.4  -0.5  730  297    +6.4       
21 29.10.11 140 (ЮВ) >10 км    ясно 
-3.6 -4.3 95 -6  1029.8  -0.8  730  298           
00 30.10.11 140 (ЮВ) >10 км    ясно 
-4.7 -5.2 96 -8  1029  -0.8  729  299           
03 30.10.11 120 (ЮВ) 0700 м  переохл. туман  ?/?  
-2.8 -3.1 98 -5  1027.5  -1  728  297           
06 30.10.11 120 (ЮВ) 0200 м  переохл. туман  ?/?  
-2.2 -2.2 100 -5  1027.5  -1  728  296  -5.1         
09 30.10.11 130 (ЮВ) 4000 м  дымка{туман}  3/3 200 м 
[St]
+3.3 +0 79 +1  1025.5  -0.8  728  290           
12 30.10.11 020 (С) >10 км  {туман}  1/0 средняя 
[Ac trans]
+7.5 +1 63 +7  1023.7  -0.9  727  285           
15 30.10.11 320 (СЗ) 10 км    3/0 средняя 
[Ac trans]
+2 -0.1 86 +1  1024.7  0.1  727  291    +8.2       
18 30.10.11 320 (СЗ) >10 км    3/0 средняя 
[Ac trans]
-1.2 -1.6 97 -3  1025.7  0.3  727  294    +8.2       
21 30.10.11 310 (СЗ) 0500 м  переохл. туман  ?/?  
-2.4 -2.7 98 -3  1025.4  -0.6  727  296           
00 31.10.11 340 (С) 0900 м  переохл. туман  н/о 
-3.1 -3.5 97 -4  1025.6  0.1  727  297           
03 31.10.11 350 (С) 1200 м  дымка{туман}  10/10 60 м 
[St]
-1.7 -2 98 -1  1025.2  -0.1  727  295           
06 31.10.11 360 (С) 0900 м  переохл. туман  ?/?  
-2 -2.3 98 -1  1025.8  0.5  727  295  -4.1         
09 31.10.11 330 (СЗ) 4000 м  дымка{туман}  9/9 240 м 
[St]
+0.2 -0.1 98 -2  1024.9  -0.3  727  293           
12 31.10.11 350 (С) >10 км  {туман}  3/0 верхняя 
[Ci fib]
+4.8 -0.4 69 +4  1023.2  -0.7  726  288           
15 31.10.11 310 (СЗ) >10 км    3/0 верхняя 
[Ci fib]
+0 -1.6 89 +1  1024.2  0.1  726  293    +4.8       
18 31.10.11 280 (З) >10 км    ясно 
-1.2 -2.1 94 -3  1024.6  726  294    +4.8       
21 31.10.11 230 (ЮЗ) >10 км    ясно 
-2.2 -3.3 92 -2  1024.3  -0.4  726  295           
00 01.11.11 260 (З) >10 км    ясно 
-1.2 -3.9 82 -2  1024.1  726  294           
03 01.11.11 250 (З) >10 км    ясно 
-0.1 -4.4 73 +1  1023.6  -0.3  726  293           
06 01.11.11 270 (З) >10 км    4/3 600 м верхняя 
[Sc|Ci fib]
+5.5 +2.3 80 +4  1022.8  0.4  726  286  -3.4         
Время (UTC), дата Ветер
(°,м/с) 
Видим.   Явления Облачность Т
(°С)
Тd
(°С)
f(%) Тe
(°С)
Pmin
(гПа)
dP
(гПа)
Po
(мм)
O2
(г/м3)
Тmin Tmax R s Состояние
почвы